Location: Eenumerhoogte
(53.3420°N, 6.7843°E)
Time: 11:33:13
(UTC+00:00)

Meteor 1-27 Rocket - Pass Details

Date: 15 May 2026
Orbit: 830 x 907 km, 81.3° (Epoch: 9 June)

Event Time Altitude Azimuth Distance (km) Brightness Sun altitude
Exits shadow 23:25:46 29° 179° (S) 1,556 4.5 -17.6°
Maximum altitude 23:28:49 74° 100° (E) 916 3.8 -17.6°
Drops below altitude 10° 23:34:32 10° 16° (NNE) 2,520 7.4 -17.6°
Sets 23:36:57 0° 15° (NNE) 3,450 8.4 -17.6°
